owner,sensor,date,latitude,longitude,vertical_datum,sea_water_practical_salinity,qcFlag 
DISL,ioos:station:DISL:DISL:1,2009-09-01T00:00:00Z,30.2513,-88.0778,5.749,24.26,1111122 
DISL,ioos:station:DISL:DISL:1,2009-09-01T00:30:00Z,30.2513,-88.0778,5.789,24.45,1111122 
DISL,ioos:station:DISL:DISL:1,2009-09-01T01:00:00Z,30.2513,-88.0778,5.729,23.73,1111122 
DISL,ioos:station:DISL:DISL:1,2009-09-01T01:30:00Z,30.2513,-88.0778,5.804,24.27,1111122 
DISL,ioos:station:DISL:DISL:1,2009-09-01T02:00:00Z,30.2513,-88.0778,5.798,24.33,1111122 
DISL,ioos:station:DISL:DISL:1,2009-09-01T02:30:00Z,30.2513,-88.0778,5.828,24.62,1111122 
DISL,ioos:station:DISL:DISL:1,2009-09-01T03:00:00Z,30.2513,-88.0778,5.85,27.8,1111122 
DISL,ioos:station:DISL:DISL:1,2009-09-01T03:30:00Z,30.2513,-88.0778,5.876,27.81,1111122 
DISL,ioos:station:DISL:DISL:1,2009-09-01T04:00:00Z,30.2513,-88.0778,5.926,28.82,1111122 
DISL,ioos:station:DISL:DISL:1,2009-09-01T04:30:00Z,30.2513,-88.0778,5.995,27.32,1111122 
DISL,ioos:station:DISL:DISL:1,2009-09-01T05:00:00Z,30.2513,-88.0778,6.073,26.72,1111122 
DISL,ioos:station:DISL:DISL:1,2009-09-01T05:30:00Z,30.2513,-88.0778,6.097,26.42,1111122 
DISL,ioos:station:DISL:DISL:1,2009-09-01T06:00:00Z,30.2513,-88.0778,6.24,25.52,1111122 
DISL,ioos:station:DISL:DISL:1,2009-09-01T06:30:00Z,30.2513,-88.0778,6.404,27.24,1111122 
DISL,ioos:station:DISL:DISL:1,2009-09-01T07:00:00Z,30.2513,-88.0778,6.425,27.2,1111122 
DISL,ioos:station:DISL:DISL:1,2009-09-01T07:30:00Z,30.2513,-88.0778,6.458,26.0,1111122 
DISL,ioos:station:DISL:DISL:1,2009-09-01T08:00:00Z,30.2513,-88.0778,6.712,25.53,1111122 
DISL,ioos:station:DISL:DISL:1,2009-09-01T08:30:00Z,30.2513,-88.0778,6.563,27.06,1111122 
DISL,ioos:station:DISL:DISL:1,2009-09-01T09:00:00Z,30.2513,-88.0778,6.555,29.52,1111122 
DISL,ioos:station:DISL:DISL:1,2009-09-01T09:30:00Z,30.2513,-88.0778,6.614,29.1,1111122 
DISL,ioos:station:DISL:DISL:1,2009-09-01T10:00:00Z,30.2513,-88.0778,6.73,28.7,1111122 
DISL,ioos:station:DISL:DISL:1,2009-09-01T10:30:00Z,30.2513,-88.0778,6.793,28.2,1111122 
DISL,ioos:station:DISL:DISL:1,2009-09-01T11:00:00Z,30.2513,-88.0778,6.876,31.35,1111122 
DISL,ioos:station:DISL:DISL:1,2009-09-01T11:30:00Z,30.2513,-88.0778,6.96,31.3,1111122 
DISL,ioos:station:DISL:DISL:1,2009-09-01T12:00:00Z,30.2513,-88.0778,6.96,29.28,1111122 
DISL,ioos:station:DISL:DISL:1,2009-09-01T12:30:00Z,30.2513,-88.0778,7.05,29.97,1111122 
DISL,ioos:station:DISL:DISL:1,2009-09-01T13:00:00Z,30.2513,-88.0778,7.06,29.68,1111122 
DISL,ioos:station:DISL:DISL:1,2009-09-01T13:30:00Z,30.2513,-88.0778,7.06,28.54,1111122 
DISL,ioos:station:DISL:DISL:1,2009-09-01T14:00:00Z,30.2513,-88.0778,7.1,28.62,1111122 
DISL,ioos:station:DISL:DISL:1,2009-09-01T14:30:00Z,30.2513,-88.0778,7.14,24.75,1111122 
DISL,ioos:station:DISL:DISL:1,2009-09-01T15:00:00Z,30.2513,-88.0778,7.15,24.9,1111122 
DISL,ioos:station:DISL:DISL:1,2009-09-01T15:30:00Z,30.2513,-88.0778,7.15,23.93,1111122 
DISL,ioos:station:DISL:DISL:1,2009-09-01T16:00:00Z,30.2513,-88.0778,7.08,26.07,1111122 
DISL,ioos:station:DISL:DISL:1,2009-09-01T16:30:00Z,30.2513,-88.0778,7.04,24.59,1111122 
DISL,ioos:station:DISL:DISL:1,2009-09-01T17:00:00Z,30.2513,-88.0778,6.922,24.24,1111122 
DISL,ioos:station:DISL:DISL:1,2009-09-01T17:30:00Z,30.2513,-88.0778,6.86,23.8,1111122 
DISL,ioos:station:DISL:DISL:1,2009-09-01T18:00:00Z,30.2513,-88.0778,6.801,24.06,1111122 
DISL,ioos:station:DISL:DISL:1,2009-09-01T18:30:00Z,30.2513,-88.0778,6.744,24.73,1111122 
DISL,ioos:station:DISL:DISL:1,2009-09-01T19:00:00Z,30.2513,-88.0778,6.627,22.37,1111122 
DISL,ioos:station:DISL:DISL:1,2009-09-01T19:30:00Z,30.2513,-88.0778,6.573,21.57,1111122 
DISL,ioos:station:DISL:DISL:1,2009-09-01T20:00:00Z,30.2513,-88.0778,6.473,22.13,1111122 
DISL,ioos:station:DISL:DISL:1,2009-09-01T20:30:00Z,30.2513,-88.0778,6.421,22.11,1111122 
DISL,ioos:station:DISL:DISL:1,2009-09-01T21:00:00Z,30.2513,-88.0778,6.341,22.08,1111122 
DISL,ioos:station:DISL:DISL:1,2009-09-01T21:30:00Z,30.2513,-88.0778,6.28,23.31,1111122 
DISL,ioos:station:DISL:DISL:1,2009-09-01T22:00:00Z,30.2513,-88.0778,6.216,22.03,1111122 
DISL,ioos:station:DISL:DISL:1,2009-09-01T22:30:00Z,30.2513,-88.0778,6.17,23.81,1111122 
DISL,ioos:station:DISL:DISL:1,2009-09-01T23:00:00Z,30.2513,-88.0778,6.059,23.99,1111122 
DISL,ioos:station:DISL:DISL:1,2009-09-01T23:30:00Z,30.2513,-88.0778,6.079,24.69,1111122 
DISL,ioos:station:DISL:DISL:1,2009-09-02T00:00:00Z,30.2513,-88.0778,6.046,24.49,1111122 
DISL,ioos:station:DISL:DISL:1,2009-09-02T00:30:00Z,30.2513,-88.0778,6.006,23.86,1111122 
DISL,ioos:station:DISL:DISL:1,2009-09-02T01:00:00Z,30.2513,-88.0778,5.97,23.22,1111122 
DISL,ioos:station:DISL:DISL:1,2009-09-02T01:30:00Z,30.2513,-88.0778,6.034,23.02,1111122 
DISL,ioos:station:DISL:DISL:1,2009-09-02T02:00:00Z,30.2513,-88.0778,5.971,22.39,1111122 
DISL,ioos:station:DISL:DISL:1,2009-09-02T02:30:00Z,30.2513,-88.0778,6.185,23.1,1111122 
DISL,ioos:station:DISL:DISL:1,2009-09-02T03:00:00Z,30.2513,-88.0778,6.115,23.24,1111122 
DISL,ioos:station:DISL:DISL:1,2009-09-02T03:30:00Z,30.2513,-88.0778,6.157,23.27,1111122 
DISL,ioos:station:DISL:DISL:1,2009-09-02T04:00:00Z,30.2513,-88.0778,6.128,23.23,1111122 
DISL,ioos:station:DISL:DISL:1,2009-09-02T04:30:00Z,30.2513,-88.0778,6.178,23.41,1111122 
DISL,ioos:station:DISL:DISL:1,2009-09-02T05:00:00Z,30.2513,-88.0778,6.176,23.31,1111122 
DISL,ioos:station:DISL:DISL:1,2009-09-02T05:30:00Z,30.2513,-88.0778,6.228,23.46,1111122 
DISL,ioos:station:DISL:DISL:1,2009-09-02T06:00:00Z,30.2513,-88.0778,6.237,23.48,1111122 
DISL,ioos:station:DISL:DISL:1,2009-09-02T06:30:00Z,30.2513,-88.0778,6.308,25.65,1111122 
DISL,ioos:station:DISL:DISL:1,2009-09-02T07:00:00Z,30.2513,-88.0778,6.248,26.82,1111122 
DISL,ioos:station:DISL:DISL:1,2009-09-02T07:30:00Z,30.2513,-88.0778,6.369,26.69,1111122 
DISL,ioos:station:DISL:DISL:1,2009-09-02T08:00:00Z,30.2513,-88.0778,6.432,26.57,1111122 
DISL,ioos:station:DISL:DISL:1,2009-09-02T08:30:00Z,30.2513,-88.0778,6.443,27.93,1111122 
DISL,ioos:station:DISL:DISL:1,2009-09-02T09:00:00Z,30.2513,-88.0778,6.55,29.11,1111122 
DISL,ioos:station:DISL:DISL:1,2009-09-02T09:30:00Z,30.2513,-88.0778,6.566,29.93,1111122 
DISL,ioos:station:DISL:DISL:1,2009-09-02T10:00:00Z,30.2513,-88.0778,6.658,28.57,1111122 
DISL,ioos:station:DISL:DISL:1,2009-09-02T10:30:00Z,30.2513,-88.0778,6.736,29.79,1111122 
DISL,ioos:station:DISL:DISL:1,2009-09-02T11:00:00Z,30.2513,-88.0778,6.844,27.81,1111122 
DISL,ioos:station:DISL:DISL:1,2009-09-02T11:30:00Z,30.2513,-88.0778,6.933,27.75,1111122 
DISL,ioos:station:DISL:DISL:1,2009-09-02T12:00:00Z,30.2513,-88.0778,7.01,26.26,1111122 
DISL,ioos:station:DISL:DISL:1,2009-09-02T12:30:00Z,30.2513,-88.0778,7.08,27.78,1111122 
DISL,ioos:station:DISL:DISL:1,2009-09-02T13:00:00Z,30.2513,-88.0778,7.14,29.64,1111122 
DISL,ioos:station:DISL:DISL:1,2009-09-02T13:30:00Z,30.2513,-88.0778,7.16,29.79,1111122 
DISL,ioos:station:DISL:DISL:1,2009-09-02T14:00:00Z,30.2513,-88.0778,7.23,30.16,1111122 
DISL,ioos:station:DISL:DISL:1,2009-09-02T14:30:00Z,30.2513,-88.0778,7.19,31.96,1111122 
DISL,ioos:station:DISL:DISL:1,2009-09-02T15:00:00Z,30.2513,-88.0778,7.26,30.67,1111122 
DISL,ioos:station:DISL:DISL:1,2009-09-02T15:30:00Z,30.2513,-88.0778,7.26,27.63,1111122 
DISL,ioos:station:DISL:DISL:1,2009-09-02T16:00:00Z,30.2513,-88.0778,7.26,25.29,1111122 
DISL,ioos:station:DISL:DISL:1,2009-09-02T16:30:00Z,30.2513,-88.0778,7.22,23.99,1111122 
DISL,ioos:station:DISL:DISL:1,2009-09-02T17:00:00Z,30.2513,-88.0778,7.18,22.79,1111122 
DISL,ioos:station:DISL:DISL:1,2009-09-02T17:30:00Z,30.2513,-88.0778,7.06,24.82,1111122 
DISL,ioos:station:DISL:DISL:1,2009-09-02T18:00:00Z,30.2513,-88.0778,7.0,23.61,1111122 
DISL,ioos:station:DISL:DISL:1,2009-09-02T18:30:00Z,30.2513,-88.0778,6.948,23.52,1111122 
DISL,ioos:station:DISL:DISL:1,2009-09-02T19:00:00Z,30.2513,-88.0778,6.858,24.7,1111122 
DISL,ioos:station:DISL:DISL:1,2009-09-02T19:30:00Z,30.2513,-88.0778,6.765,22.55,1111122 
DISL,ioos:station:DISL:DISL:1,2009-09-02T20:00:00Z,30.2513,-88.0778,6.699,21.35,1111122 
DISL,ioos:station:DISL:DISL:1,2009-09-02T20:30:00Z,30.2513,-88.0778,6.629,22.47,1111122 
DISL,ioos:station:DISL:DISL:1,2009-09-02T21:00:00Z,30.2513,-88.0778,6.582,23.39,1111122 
DISL,ioos:station:DISL:DISL:1,2009-09-02T21:30:00Z,30.2513,-88.0778,6.52,21.84,1111122 
DISL,ioos:station:DISL:DISL:1,2009-09-02T22:00:00Z,30.2513,-88.0778,6.452,22.31,1111122 
DISL,ioos:station:DISL:DISL:1,2009-09-02T22:30:00Z,30.2513,-88.0778,6.486,23.8,1111122 
DISL,ioos:station:DISL:DISL:1,2009-09-02T23:00:00Z,30.2513,-88.0778,6.364,24.24,1111122 
DISL,ioos:station:DISL:DISL:1,2009-09-02T23:30:00Z,30.2513,-88.0778,6.33,23.36,1111122 
DISL,ioos:station:DISL:DISL:1,2009-09-03T00:00:00Z,30.2513,-88.0778,6.411,25.04,1111122 
DISL,ioos:station:DISL:DISL:1,2009-09-03T00:30:00Z,30.2513,-88.0778,6.34,23.97,1111122 
DISL,ioos:station:DISL:DISL:1,2009-09-03T01:00:00Z,30.2513,-88.0778,6.286,23.87,1111122 
DISL,ioos:station:DISL:DISL:1,2009-09-03T01:30:00Z,30.2513,-88.0778,6.223,23.47,1111122 
DISL,ioos:station:DISL:DISL:1,2009-09-03T02:00:00Z,30.2513,-88.0778,6.404,23.4,1111122 
DISL,ioos:station:DISL:DISL:1,2009-09-03T02:30:00Z,30.2513,-88.0778,6.439,24.22,1111122 
DISL,ioos:station:DISL:DISL:1,2009-09-03T03:00:00Z,30.2513,-88.0778,6.055,23.08,1111122 
DISL,ioos:station:DISL:DISL:1,2009-09-03T03:30:00Z,30.2513,-88.0778,6.115,23.32,1111122 
DISL,ioos:station:DISL:DISL:1,2009-09-03T04:00:00Z,30.2513,-88.0778,6.209,22.87,1111122 
DISL,ioos:station:DISL:DISL:1,2009-09-03T04:30:00Z,30.2513,-88.0778,5.999,24.35,1111122 
DISL,ioos:station:DISL:DISL:1,2009-09-03T05:00:00Z,30.2513,-88.0778,6.257,24.84,1111122 
DISL,ioos:station:DISL:DISL:1,2009-09-03T05:30:00Z,30.2513,-88.0778,6.241,27.36,1111122 
DISL,ioos:station:DISL:DISL:1,2009-09-03T06:00:00Z,30.2513,-88.0778,6.251,27.69,1111122 
DISL,ioos:station:DISL:DISL:1,2009-09-03T06:30:00Z,30.2513,-88.0778,6.397,28.54,1111122 
DISL,ioos:station:DISL:DISL:1,2009-09-03T07:00:00Z,30.2513,-88.0778,6.5,26.18,1111122 
DISL,ioos:station:DISL:DISL:1,2009-09-03T07:30:00Z,30.2513,-88.0778,6.536,25.82,1111122 
DISL,ioos:station:DISL:DISL:1,2009-09-03T08:00:00Z,30.2513,-88.0778,6.504,27.31,1111122 
DISL,ioos:station:DISL:DISL:1,2009-09-03T08:30:00Z,30.2513,-88.0778,6.692,27.03,1111122 
DISL,ioos:station:DISL:DISL:1,2009-09-03T09:00:00Z,30.2513,-88.0778,6.736,26.9,1111122 
DISL,ioos:station:DISL:DISL:1,2009-09-03T09:30:00Z,30.2513,-88.0778,6.828,27.15,1111122 
DISL,ioos:station:DISL:DISL:1,2009-09-03T10:00:00Z,30.2513,-88.0778,6.889,26.42,1111122 
DISL,ioos:station:DISL:DISL:1,2009-09-03T10:30:00Z,30.2513,-88.0778,6.939,27.37,1111122 
DISL,ioos:station:DISL:DISL:1,2009-09-03T11:00:00Z,30.2513,-88.0778,6.906,30.0,1111122 
DISL,ioos:station:DISL:DISL:1,2009-09-03T11:30:00Z,30.2513,-88.0778,6.98,30.62,1111122 
DISL,ioos:station:DISL:DISL:1,2009-09-03T12:00:00Z,30.2513,-88.0778,6.873,31.65,1111122 
DISL,ioos:station:DISL:DISL:1,2009-09-03T12:30:00Z,30.2513,-88.0778,7.17,30.1,1111122 
DISL,ioos:station:DISL:DISL:1,2009-09-03T13:00:00Z,30.2513,-88.0778,7.16,30.87,1111122 
DISL,ioos:station:DISL:DISL:1,2009-09-03T13:30:00Z,30.2513,-88.0778,7.32,31.48,1111122 
DISL,ioos:station:DISL:DISL:1,2009-09-03T14:00:00Z,30.2513,-88.0778,7.25,32.5,1111122 
DISL,ioos:station:DISL:DISL:1,2009-09-03T14:30:00Z,30.2513,-88.0778,7.31,31.17,1111122 
DISL,ioos:station:DISL:DISL:1,2009-09-03T15:00:00Z,30.2513,-88.0778,7.32,30.25,1111122 
DISL,ioos:station:DISL:DISL:1,2009-09-03T15:30:00Z,30.2513,-88.0778,7.39,31.89,1111122 
DISL,ioos:station:DISL:DISL:1,2009-09-03T16:00:00Z,30.2513,-88.0778,7.38,33.19,1111122 
DISL,ioos:station:DISL:DISL:1,2009-09-03T16:30:00Z,30.2513,-88.0778,7.38,29.87,1111122 
DISL,ioos:station:DISL:DISL:1,2009-09-03T17:00:00Z,30.2513,-88.0778,7.33,29.22,1111122 
DISL,ioos:station:DISL:DISL:1,2009-09-03T17:30:00Z,30.2513,-88.0778,7.28,29.05,1111122 
DISL,ioos:station:DISL:DISL:1,2009-09-03T18:00:00Z,30.2513,-88.0778,7.28,26.51,1111122 
DISL,ioos:station:DISL:DISL:1,2009-09-03T18:30:00Z,30.2513,-88.0778,6.421,25.21,1111122 
DISL,ioos:station:DISL:DISL:1,2009-09-03T19:00:00Z,30.2513,-88.0778,7.2,24.3,1111122 
DISL,ioos:station:DISL:DISL:1,2009-09-03T19:30:00Z,30.2513,-88.0778,7.09,24.02,1111122 
DISL,ioos:station:DISL:DISL:1,2009-09-03T20:00:00Z,30.2513,-88.0778,7.08,23.99,1111122 
DISL,ioos:station:DISL:DISL:1,2009-09-03T20:30:00Z,30.2513,-88.0778,6.995,25.31,1111122 
DISL,ioos:station:DISL:DISL:1,2009-09-03T21:00:00Z,30.2513,-88.0778,6.878,23.74,1111122 
DISL,ioos:station:DISL:DISL:1,2009-09-03T21:30:00Z,30.2513,-88.0778,6.905,23.11,1111122 
DISL,ioos:station:DISL:DISL:1,2009-09-03T22:00:00Z,30.2513,-88.0778,6.891,22.96,1111122 
DISL,ioos:station:DISL:DISL:1,2009-09-03T22:30:00Z,30.2513,-88.0778,6.805,22.69,1111122 
DISL,ioos:station:DISL:DISL:1,2009-09-03T23:00:00Z,30.2513,-88.0778,6.744,24.0,1111122 
DISL,ioos:station:DISL:DISL:1,2009-09-03T23:30:00Z,30.2513,-88.0778,6.769,23.1,1111122 
DISL,ioos:station:DISL:DISL:1,2009-09-04T00:00:00Z,30.2513,-88.0778,6.667,24.43,1111122 
DISL,ioos:station:DISL:DISL:1,2009-09-04T00:30:00Z,30.2513,-88.0778,6.693,24.03,1111122 
DISL,ioos:station:DISL:DISL:1,2009-09-04T01:00:00Z,30.2513,-88.0778,6.654,22.79,1111122 
DISL,ioos:station:DISL:DISL:1,2009-09-04T01:30:00Z,30.2513,-88.0778,6.601,26.7,1111122 
DISL,ioos:station:DISL:DISL:1,2009-09-04T02:00:00Z,30.2513,-88.0778,6.594,26.7,1111122 
DISL,ioos:station:DISL:DISL:1,2009-09-04T02:30:00Z,30.2513,-88.0778,6.634,23.23,1111122 
DISL,ioos:station:DISL:DISL:1,2009-09-04T03:00:00Z,30.2513,-88.0778,6.611,24.19,1111122 
DISL,ioos:station:DISL:DISL:1,2009-09-04T03:30:00Z,30.2513,-88.0778,6.589,26.11,1111122 
DISL,ioos:station:DISL:DISL:1,2009-09-04T04:00:00Z,30.2513,-88.0778,6.604,25.68,1111122 
DISL,ioos:station:DISL:DISL:1,2009-09-04T04:30:00Z,30.2513,-88.0778,6.632,26.15,1111122 
DISL,ioos:station:DISL:DISL:1,2009-09-04T05:00:00Z,30.2513,-88.0778,6.659,27.48,1111122 
DISL,ioos:station:DISL:DISL:1,2009-09-04T05:30:00Z,30.2513,-88.0778,6.647,28.29,1111122 
DISL,ioos:station:DISL:DISL:1,2009-09-04T06:00:00Z,30.2513,-88.0778,6.618,28.53,1111122 
DISL,ioos:station:DISL:DISL:1,2009-09-04T06:30:00Z,30.2513,-88.0778,6.649,27.79,1111122 
DISL,ioos:station:DISL:DISL:1,2009-09-04T07:00:00Z,30.2513,-88.0778,6.68,28.88,1111122 
DISL,ioos:station:DISL:DISL:1,2009-09-04T07:30:00Z,30.2513,-88.0778,6.729,26.07,1111122 
DISL,ioos:station:DISL:DISL:1,2009-09-04T08:00:00Z,30.2513,-88.0778,6.757,26.85,1111122 
DISL,ioos:station:DISL:DISL:1,2009-09-04T08:30:00Z,30.2513,-88.0778,6.745,26.46,1111122 
DISL,ioos:station:DISL:DISL:1,2009-09-04T09:00:00Z,30.2513,-88.0778,6.755,27.77,1111122 
DISL,ioos:station:DISL:DISL:1,2009-09-04T09:30:00Z,30.2513,-88.0778,6.811,28.2,1111122 
DISL,ioos:station:DISL:DISL:1,2009-09-04T10:00:00Z,30.2513,-88.0778,6.867,23.93,1111122 
DISL,ioos:station:DISL:DISL:1,2009-09-04T10:30:00Z,30.2513,-88.0778,6.851,24.66,1111122 
DISL,ioos:station:DISL:DISL:1,2009-09-04T11:00:00Z,30.2513,-88.0778,6.908,24.44,1111122 
DISL,ioos:station:DISL:DISL:1,2009-09-04T11:30:00Z,30.2513,-88.0778,6.948,28.03,1111122 
DISL,ioos:station:DISL:DISL:1,2009-09-04T12:00:00Z,30.2513,-88.0778,7.0,27.18,1111122 
DISL,ioos:station:DISL:DISL:1,2009-09-04T12:30:00Z,30.2513,-88.0778,7.01,29.22,1111122 
DISL,ioos:station:DISL:DISL:1,2009-09-04T13:00:00Z,30.2513,-88.0778,7.07,29.4,1111122 
DISL,ioos:station:DISL:DISL:1,2009-09-04T13:30:00Z,30.2513,-88.0778,7.08,30.41,1111122 
DISL,ioos:station:DISL:DISL:1,2009-09-04T14:00:00Z,30.2513,-88.0778,7.17,30.93,1111122 
DISL,ioos:station:DISL:DISL:1,2009-09-04T14:30:00Z,30.2513,-88.0778,7.18,29.63,1111122 
DISL,ioos:station:DISL:DISL:1,2009-09-04T15:00:00Z,30.2513,-88.0778,7.18,28.78,1111122 
DISL,ioos:station:DISL:DISL:1,2009-09-04T15:30:00Z,30.2513,-88.0778,7.28,29.03,1111122 
DISL,ioos:station:DISL:DISL:1,2009-09-04T16:00:00Z,30.2513,-88.0778,7.38,29.17,1111122 
DISL,ioos:station:DISL:DISL:1,2009-09-04T16:30:00Z,30.2513,-88.0778,7.33,28.81,1111122 
DISL,ioos:station:DISL:DISL:1,2009-09-04T17:00:00Z,30.2513,-88.0778,7.32,29.13,1111122 
DISL,ioos:station:DISL:DISL:1,2009-09-04T17:30:00Z,30.2513,-88.0778,7.39,28.54,1111122 
DISL,ioos:station:DISL:DISL:1,2009-09-04T18:00:00Z,30.2513,-88.0778,7.25,28.81,1111122 
DISL,ioos:station:DISL:DISL:1,2009-09-04T18:30:00Z,30.2513,-88.0778,7.29,28.7,1111122 
DISL,ioos:station:DISL:DISL:1,2009-09-04T19:00:00Z,30.2513,-88.0778,7.26,29.48,1111122 
DISL,ioos:station:DISL:DISL:1,2009-09-04T19:30:00Z,30.2513,-88.0778,7.27,31.48,1111122 
DISL,ioos:station:DISL:DISL:1,2009-09-04T20:00:00Z,30.2513,-88.0778,7.18,32.38,1111122 
DISL,ioos:station:DISL:DISL:1,2009-09-04T20:30:00Z,30.2513,-88.0778,7.14,31.96,1111122 
DISL,ioos:station:DISL:DISL:1,2009-09-04T21:00:00Z,30.2513,-88.0778,7.06,32.44,1111122 
DISL,ioos:station:DISL:DISL:1,2009-09-04T21:30:00Z,30.2513,-88.0778,6.98,30.01,1111122 
DISL,ioos:station:DISL:DISL:1,2009-09-04T22:00:00Z,30.2513,-88.0778,6.961,29.36,1111122 
DISL,ioos:station:DISL:DISL:1,2009-09-04T22:30:00Z,30.2513,-88.0778,7.0,29.31,1111122 
DISL,ioos:station:DISL:DISL:1,2009-09-04T23:00:00Z,30.2513,-88.0778,6.946,26.61,1111122 
DISL,ioos:station:DISL:DISL:1,2009-09-04T23:30:00Z,30.2513,-88.0778,6.875,26.38,1111122 
DISL,ioos:station:DISL:DISL:1,2009-09-05T00:00:00Z,30.2513,-88.0778,6.876,28.48,1111122 
DISL,ioos:station:DISL:DISL:1,2009-09-05T00:30:00Z,30.2513,-88.0778,6.875,28.75,1111122 
DISL,ioos:station:DISL:DISL:1,2009-09-05T01:00:00Z,30.2513,-88.0778,6.921,27.17,1111122 
DISL,ioos:station:DISL:DISL:1,2009-09-05T01:30:00Z,30.2513,-88.0778,6.973,26.69,1111122 
DISL,ioos:station:DISL:DISL:1,2009-09-05T02:00:00Z,30.2513,-88.0778,6.915,29.33,1111122 
DISL,ioos:station:DISL:DISL:1,2009-09-05T02:30:00Z,30.2513,-88.0778,6.924,28.01,1111122 
DISL,ioos:station:DISL:DISL:1,2009-09-05T03:00:00Z,30.2513,-88.0778,6.949,28.2,1111122 
DISL,ioos:station:DISL:DISL:1,2009-09-05T03:30:00Z,30.2513,-88.0778,7.03,28.89,1111122 
DISL,ioos:station:DISL:DISL:1,2009-09-05T04:00:00Z,30.2513,-88.0778,6.973,28.15,1111122 
DISL,ioos:station:DISL:DISL:1,2009-09-05T04:30:00Z,30.2513,-88.0778,6.844,30.4,1111122 
DISL,ioos:station:DISL:DISL:1,2009-09-05T05:00:00Z,30.2513,-88.0778,6.902,30.17,1111122 
DISL,ioos:station:DISL:DISL:1,2009-09-05T05:30:00Z,30.2513,-88.0778,6.652,30.41,1111122 
DISL,ioos:station:DISL:DISL:1,2009-09-05T06:00:00Z,30.2513,-88.0778,6.815,30.55,1111122 
DISL,ioos:station:DISL:DISL:1,2009-09-05T06:30:00Z,30.2513,-88.0778,6.838,30.18,1111122 
DISL,ioos:station:DISL:DISL:1,2009-09-05T07:00:00Z,30.2513,-88.0778,6.834,30.2,1111122 
DISL,ioos:station:DISL:DISL:1,2009-09-05T07:30:00Z,30.2513,-88.0778,6.909,30.01,1111122 
DISL,ioos:station:DISL:DISL:1,2009-09-05T08:00:00Z,30.2513,-88.0778,6.947,29.66,1111122 
DISL,ioos:station:DISL:DISL:1,2009-09-05T08:30:00Z,30.2513,-88.0778,6.869,30.22,1111122 
DISL,ioos:station:DISL:DISL:1,2009-09-05T09:00:00Z,30.2513,-88.0778,6.836,30.53,1111122 
DISL,ioos:station:DISL:DISL:1,2009-09-05T09:30:00Z,30.2513,-88.0778,6.843,30.51,1111122 
DISL,ioos:station:DISL:DISL:1,2009-09-05T10:00:00Z,30.2513,-88.0778,6.733,29.16,1111122 
DISL,ioos:station:DISL:DISL:1,2009-09-05T10:30:00Z,30.2513,-88.0778,6.836,30.33,1111122 
DISL,ioos:station:DISL:DISL:1,2009-09-05T11:00:00Z,30.2513,-88.0778,6.819,30.45,1111122 
DISL,ioos:station:DISL:DISL:1,2009-09-05T11:30:00Z,30.2513,-88.0778,6.824,29.55,1111122 
DISL,ioos:station:DISL:DISL:1,2009-09-05T12:00:00Z,30.2513,-88.0778,6.886,31.72,1111122 
DISL,ioos:station:DISL:DISL:1,2009-09-05T12:30:00Z,30.2513,-88.0778,6.87,32.28,1111122 
DISL,ioos:station:DISL:DISL:1,2009-09-05T13:00:00Z,30.2513,-88.0778,6.924,30.71,1111122 
DISL,ioos:station:DISL:DISL:1,2009-09-05T13:30:00Z,30.2513,-88.0778,6.963,28.72,1111122 
DISL,ioos:station:DISL:DISL:1,2009-09-05T14:00:00Z,30.2513,-88.0778,6.897,31.11,1111122 
DISL,ioos:station:DISL:DISL:1,2009-09-05T14:30:00Z,30.2513,-88.0778,6.916,32.31,1111122 
DISL,ioos:station:DISL:DISL:1,2009-09-05T15:00:00Z,30.2513,-88.0778,6.915,31.42,1111122 
DISL,ioos:station:DISL:DISL:1,2009-09-05T15:30:00Z,30.2513,-88.0778,6.974,32.63,1111122 
DISL,ioos:station:DISL:DISL:1,2009-09-05T16:00:00Z,30.2513,-88.0778,7.04,31.03,1111122 
DISL,ioos:station:DISL:DISL:1,2009-09-05T16:30:00Z,30.2513,-88.0778,6.937,32.54,1111122 
DISL,ioos:station:DISL:DISL:1,2009-09-05T17:00:00Z,30.2513,-88.0778,6.925,30.83,1111122 
DISL,ioos:station:DISL:DISL:1,2009-09-05T17:30:00Z,30.2513,-88.0778,7.1,32.49,1111122 
DISL,ioos:station:DISL:DISL:1,2009-09-05T18:00:00Z,30.2513,-88.0778,7.04,32.72,1111122 
DISL,ioos:station:DISL:DISL:1,2009-09-05T18:30:00Z,30.2513,-88.0778,7.09,33.14,1111122 
DISL,ioos:station:DISL:DISL:1,2009-09-05T19:00:00Z,30.2513,-88.0778,7.04,30.8,1111122 
DISL,ioos:station:DISL:DISL:1,2009-09-05T19:30:00Z,30.2513,-88.0778,7.06,30.71,1111122 
DISL,ioos:station:DISL:DISL:1,2009-09-05T20:00:00Z,30.2513,-88.0778,6.94,32.93,1111122 
DISL,ioos:station:DISL:DISL:1,2009-09-05T20:30:00Z,30.2513,-88.0778,6.885,29.68,1111122 
DISL,ioos:station:DISL:DISL:1,2009-09-05T21:00:00Z,30.2513,-88.0778,6.919,29.88,1111122 
DISL,ioos:station:DISL:DISL:1,2009-09-05T21:30:00Z,30.2513,-88.0778,6.874,29.74,1111122 
DISL,ioos:station:DISL:DISL:1,2009-09-05T22:00:00Z,30.2513,-88.0778,6.807,29.54,1111122 
DISL,ioos:station:DISL:DISL:1,2009-09-05T22:30:00Z,30.2513,-88.0778,6.8,31.35,1111122 
DISL,ioos:station:DISL:DISL:1,2009-09-05T23:00:00Z,30.2513,-88.0778,6.741,31.67,1111122 
DISL,ioos:station:DISL:DISL:1,2009-09-05T23:30:00Z,30.2513,-88.0778,6.752,30.15,1111122 
DISL,ioos:station:DISL:DISL:1,2009-09-06T00:00:00Z,30.2513,-88.0778,6.742,28.47,1111122 
DISL,ioos:station:DISL:DISL:1,2009-09-06T00:30:00Z,30.2513,-88.0778,6.759,29.6,1111122 
DISL,ioos:station:DISL:DISL:1,2009-09-06T01:00:00Z,30.2513,-88.0778,6.8,28.87,1111122 
DISL,ioos:station:DISL:DISL:1,2009-09-06T01:30:00Z,30.2513,-88.0778,6.788,28.33,1111122 
DISL,ioos:station:DISL:DISL:1,2009-09-06T02:00:00Z,30.2513,-88.0778,6.848,28.04,1111122 
DISL,ioos:station:DISL:DISL:1,2009-09-06T02:30:00Z,30.2513,-88.0778,6.841,30.14,1111122 
DISL,ioos:station:DISL:DISL:1,2009-09-06T03:00:00Z,30.2513,-88.0778,6.882,30.25,1111122 
DISL,ioos:station:DISL:DISL:1,2009-09-06T03:30:00Z,30.2513,-88.0778,6.935,32.39,1111122 
DISL,ioos:station:DISL:DISL:1,2009-09-06T04:00:00Z,30.2513,-88.0778,6.926,31.53,1111122 
DISL,ioos:station:DISL:DISL:1,2009-09-06T04:30:00Z,30.2513,-88.0778,6.913,31.17,1111122 
DISL,ioos:station:DISL:DISL:1,2009-09-06T05:00:00Z,30.2513,-88.0778,6.959,29.91,1111122 
DISL,ioos:station:DISL:DISL:1,2009-09-06T05:30:00Z,30.2513,-88.0778,6.977,31.71,1111122 
DISL,ioos:station:DISL:DISL:1,2009-09-06T06:00:00Z,30.2513,-88.0778,6.93,29.78,1111122 
DISL,ioos:station:DISL:DISL:1,2009-09-06T06:30:00Z,30.2513,-88.0778,6.957,29.6,1111122 
DISL,ioos:station:DISL:DISL:1,2009-09-06T07:00:00Z,30.2513,-88.0778,6.951,29.86,1111122 
DISL,ioos:station:DISL:DISL:1,2009-09-06T07:30:00Z,30.2513,-88.0778,6.933,31.8,1111122 
DISL,ioos:station:DISL:DISL:1,2009-09-06T08:00:00Z,30.2513,-88.0778,6.891,30.82,1111122 
DISL,ioos:station:DISL:DISL:1,2009-09-06T08:30:00Z,30.2513,-88.0778,6.849,29.54,1111122 
DISL,ioos:station:DISL:DISL:1,2009-09-06T09:00:00Z,30.2513,-88.0778,6.807,29.42,1111122 
DISL,ioos:station:DISL:DISL:1,2009-09-06T09:30:00Z,30.2513,-88.0778,6.782,32.0,1111122 
DISL,ioos:station:DISL:DISL:1,2009-09-06T10:00:00Z,30.2513,-88.0778,6.745,30.65,1111122 
DISL,ioos:station:DISL:DISL:1,2009-09-06T10:30:00Z,30.2513,-88.0778,6.682,31.11,1111122 
DISL,ioos:station:DISL:DISL:1,2009-09-06T11:00:00Z,30.2513,-88.0778,6.692,27.56,1111122 
DISL,ioos:station:DISL:DISL:1,2009-09-06T11:30:00Z,30.2513,-88.0778,6.569,27.52,1111122 
DISL,ioos:station:DISL:DISL:1,2009-09-06T12:00:00Z,30.2513,-88.0778,6.618,27.84,1111122 
DISL,ioos:station:DISL:DISL:1,2009-09-06T12:30:00Z,30.2513,-88.0778,6.582,28.19,1111122 
DISL,ioos:station:DISL:DISL:1,2009-09-06T13:00:00Z,30.2513,-88.0778,6.656,27.78,1111122 
DISL,ioos:station:DISL:DISL:1,2009-09-06T13:30:00Z,30.2513,-88.0778,6.798,26.88,1111122 
DISL,ioos:station:DISL:DISL:1,2009-09-06T14:00:00Z,30.2513,-88.0778,6.685,27.83,1111122 
DISL,ioos:station:DISL:DISL:1,2009-09-06T14:30:00Z,30.2513,-88.0778,6.678,28.64,1111122 